TimeEDT,TemperatureF,Dew PointF,Humidity,Sea Level PressureIn,VisibilityMPH,Wind Direction,Wind SpeedMPH,Gust SpeedMPH,PrecipitationIn,Events,Conditions,WindDirDegrees,DateUTC
12:14 AM,58.1,55.8,92,29.99,10.0,NW,3.5,-,N/A,,Clear,310,2013-06-14 04:14:00
12:34 AM,58.1,55.6,91,30.00,10.0,NW,5.8,-,N/A,,Clear,320,2013-06-14 04:34:00
12:54 AM,57.7,55.6,92,30.00,10.0,NW,3.5,-,N/A,,Clear,320,2013-06-14 04:54:00
1:14 AM,57.4,55.4,93,29.99,10.0,NNW,3.5,-,N/A,,Clear,330,2013-06-14 05:14:00
1:34 AM,57.2,55.4,94,30.00,10.0,NW,3.5,-,N/A,,Clear,310,2013-06-14 05:34:00
1:54 AM,56.7,55.2,95,30.00,10.0,NW,3.5,-,N/A,,Clear,320,2013-06-14 05:54:00
2:14 AM,56.7,55.4,96,30.00,10.0,NW,3.5,-,N/A,,Clear,320,2013-06-14 06:14:00
2:33 AM,56.5,55.4,96,30.00,10.0,NW,3.5,-,N/A,,Clear,310,2013-06-14 06:33:00
2:54 AM,56.3,55.4,97,30.00,10.0,Calm,Calm,-,N/A,,Clear,0,2013-06-14 06:54:00
3:14 AM,55.8,54.7,96,29.99,10.0,North,3.5,-,N/A,,Clear,350,2013-06-14 07:14:00
3:34 AM,55.9,55.0,97,30.00,10.0,NW,3.5,-,N/A,,Clear,320,2013-06-14 07:34:00
3:54 AM,55.9,55.0,97,30.01,10.0,NNW,3.5,-,N/A,,Clear,340,2013-06-14 07:54:00
4:14 AM,55.8,55.0,97,30.01,10.0,Calm,Calm,-,N/A,,Clear,0,2013-06-14 08:14:00
4:34 AM,55.6,54.7,97,30.01,10.0,Calm,Calm,-,N/A,,Clear,0,2013-06-14 08:34:00
4:54 AM,55.4,54.7,97,30.00,10.0,Calm,Calm,-,N/A,,Clear,0,2013-06-14 08:54:00
5:14 AM,54.9,54.5,99,30.02,10.0,NW,3.5,-,N/A,,Clear,310,2013-06-14 09:14:00
5:34 AM,54.9,54.5,99,30.02,10.0,NW,4.6,-,N/A,,Clear,320,2013-06-14 09:34:00
5:54 AM,55.0,54.5,98,30.02,10.0,NNW,3.5,-,N/A,,Clear,340,2013-06-14 09:54:00
6:14 AM,54.5,54.0,98,30.03,10.0,NW,4.6,-,N/A,,Clear,320,2013-06-14 10:14:00
6:34 AM,54.9,54.5,99,30.04,10.0,NW,3.5,-,N/A,,Clear,310,2013-06-14 10:34:00
6:54 AM,55.8,55.2,98,30.05,10.0,NNW,4.6,-,N/A,,Clear,330,2013-06-14 10:54:00
7:13 AM,56.7,55.8,97,30.06,10.0,NNW,5.8,-,N/A,,Clear,330,2013-06-14 11:13:00
7:34 AM,58.1,56.3,94,30.07,10.0,Calm,Calm,-,N/A,,Clear,0,2013-06-14 11:34:00
7:54 AM,58.8,56.5,92,30.08,10.0,Calm,Calm,-,N/A,,Clear,0,2013-06-14 11:54:00
8:14 AM,59.9,56.7,89,30.07,10.0,NE,4.6,-,N/A,,Clear,40,2013-06-14 12:14:00
8:34 AM,60.8,56.7,86,30.08,10.0,NE,5.8,-,N/A,,Clear,40,2013-06-14 12:34:00
8:54 AM,61.9,57.4,85,30.09,10.0,ENE,9.2,-,N/A,,Clear,70,2013-06-14 12:54:00
9:14 AM,62.6,57.2,82,30.09,10.0,ENE,9.2,-,N/A,,Clear,70,2013-06-14 13:14:00
9:34 AM,63.9,57.9,81,30.11,10.0,NE,6.9,-,N/A,,Clear,50,2013-06-14 13:34:00
9:54 AM,64.6,57.9,79,30.12,10.0,North,5.8,-,N/A,,Clear,10,2013-06-14 13:54:00
10:14 AM,66.2,58.5,76,30.11,10.0,ENE,5.8,-,N/A,,Clear,60,2013-06-14 14:14:00
10:34 AM,66.4,57.9,74,30.11,10.0,NE,4.6,-,N/A,,Clear,50,2013-06-14 14:34:00
10:54 AM,68.0,58.3,71,30.10,10.0,NNE,6.9,-,N/A,,Clear,30,2013-06-14 14:54:00
11:14 AM,68.5,57.9,69,30.12,10.0,North,8.1,-,N/A,,Clear,360,2013-06-14 15:14:00
11:34 AM,69.4,57.9,67,30.12,10.0,NNE,4.6,-,N/A,,Clear,30,2013-06-14 15:34:00
11:54 AM,69.8,57.6,65,30.12,10.0,NNE,3.5,-,N/A,,Scattered Clouds,20,2013-06-14 15:54:00
12:14 PM,70.7,58.5,65,30.10,10.0,NE,5.8,-,N/A,,Clear,40,2013-06-14 16:14:00
12:34 PM,71.1,57.6,62,30.11,10.0,NNE,5.8,-,N/A,,Clear,30,2013-06-14 16:34:00
12:54 PM,72.1,58.6,62,30.10,10.0,NNE,4.6,-,N/A,,Clear,30,2013-06-14 16:54:00
1:14 PM,72.9,57.6,59,30.09,10.0,NE,5.8,-,N/A,,Clear,50,2013-06-14 17:14:00
1:34 PM,73.4,57.2,57,30.09,10.0,ENE,5.8,-,N/A,,Clear,60,2013-06-14 17:34:00
1:54 PM,73.6,56.5,55,30.08,10.0,NNE,6.9,-,N/A,,Clear,20,2013-06-14 17:54:00
2:14 PM,74.3,57.4,55,30.07,10.0,East,6.9,-,N/A,,Clear,90,2013-06-14 18:14:00
2:34 PM,74.7,56.8,54,30.07,10.0,ENE,6.9,-,N/A,,Clear,70,2013-06-14 18:34:00
2:54 PM,74.7,55.6,51,30.07,10.0,East,6.9,-,N/A,,Clear,80,2013-06-14 18:54:00
3:14 PM,75.6,57.4,53,30.07,10.0,Calm,Calm,-,N/A,,Clear,0,2013-06-14 19:14:00
3:34 PM,76.1,57.2,52,30.07,10.0,North,5.8,-,N/A,,Clear,10,2013-06-14 19:34:00
3:54 PM,76.5,55.8,49,30.07,10.0,Calm,Calm,-,N/A,,Clear,0,2013-06-14 19:54:00
4:14 PM,76.5,55.2,48,30.07,10.0,NW,4.6,-,N/A,,Clear,310,2013-06-14 20:14:00
4:34 PM,75.2,52.3,45,30.07,10.0,Calm,Calm,-,N/A,,Scattered Clouds,0,2013-06-14 20:34:00
4:54 PM,76.3,53.4,45,30.06,10.0,Calm,Calm,-,N/A,,Scattered Clouds,0,2013-06-14 20:54:00
5:14 PM,77.7,54.5,45,30.05,10.0,SW,3.5,-,N/A,,Mostly Cloudy,230,2013-06-14 21:14:00
5:34 PM,75.0,55.0,50,30.06,10.0,North,3.5,-,N/A,,Scattered Clouds,10,2013-06-14 21:34:00
5:54 PM,76.6,54.7,46,30.06,10.0,Calm,Calm,-,N/A,,Scattered Clouds,0,2013-06-14 21:54:00
6:14 PM,76.3,54.7,47,30.05,10.0,North,3.5,-,N/A,,Mostly Cloudy,350,2013-06-14 22:14:00
6:34 PM,77.0,53.8,44,30.04,10.0,Calm,Calm,-,N/A,,Scattered Clouds,0,2013-06-14 22:34:00
6:54 PM,77.0,54.1,45,30.04,10.0,WNW,8.1,-,N/A,,Clear,290,2013-06-14 22:54:00
7:14 PM,74.1,59.9,61,30.05,10.0,WNW,15.0,-,N/A,,Scattered Clouds,300,2013-06-14 23:14:00
7:34 PM,72.7,59.5,63,30.05,10.0,WNW,11.5,-,N/A,,Scattered Clouds,300,2013-06-14 23:34:00
7:54 PM,71.6,58.5,63,30.05,10.0,NW,10.4,-,N/A,,Clear,310,2013-06-14 23:54:00
8:14 PM,70.3,58.1,65,30.06,10.0,WNW,6.9,-,N/A,,Clear,300,2013-06-15 00:14:00
8:34 PM,68.9,57.6,67,30.05,10.0,NW,6.9,-,N/A,,Clear,310,2013-06-15 00:34:00
8:54 PM,68.0,57.4,69,30.06,10.0,NW,4.6,-,N/A,,Clear,310,2013-06-15 00:54:00
9:14 PM,67.1,57.2,70,30.05,10.0,Calm,Calm,-,N/A,,Clear,0,2013-06-15 01:14:00
9:34 PM,64.6,58.6,81,30.06,7.0,Calm,Calm,-,N/A,,Clear,0,2013-06-15 01:34:00
9:54 PM,64.8,58.3,79,30.06,10.0,Calm,Calm,-,N/A,,Clear,0,2013-06-15 01:54:00
10:14 PM,62.6,57.7,84,30.06,10.0,Calm,Calm,-,N/A,,Clear,0,2013-06-15 02:14:00
10:33 PM,61.9,57.6,86,30.06,10.0,Calm,Calm,-,N/A,,Clear,0,2013-06-15 02:33:00
10:54 PM,61.2,57.6,88,30.06,10.0,Calm,Calm,-,N/A,,Clear,0,2013-06-15 02:54:00
11:14 PM,60.6,57.4,89,30.07,10.0,Calm,Calm,-,N/A,,Clear,0,2013-06-15 03:14:00
11:34 PM,59.5,57.4,93,30.06,10.0,Calm,Calm,-,N/A,,Clear,0,2013-06-15 03:34:00
11:54 PM,60.3,58.1,93,30.06,10.0,Calm,Calm,-,N/A,,Clear,0,2013-06-15 03:54:00